Regional Weather Roundup
Issued by NWS Wakefield, VA

Home | Current Version | Previous Version | Graphics & Text | Print | Product List | Glossary On
Versions: 1 2 3 4 5 6 7 8 9 10 11 12 13 14 15 16 17 18 19 20 21 22 23 24 25 26 27 28 29 30 31 32 33 34 35 36 37 38 39 40 41 42 43 44 45 46 47 48 49 50
000
ASUS41 KAKQ 221814
RWRAKQ

REGIONAL WEATHER ROUNDUP
NATIONAL WEATHER SERVICE WAKEFIELD VA
200 PM EDT FRI MAY 22 2015

Note: "fair" indicates few or no clouds below 12,000 feet with no
significant weather and/or obstructions to visibility. * = Denotes
station may not report precipitation (e.g., rain,snow,etc.),
thunder or fog.

VAZ042-051-052>054-056-221900-
NORTHERN VIRGINIA

CITY           SKY/WX    TMP DP  RH WIND       PRES   REMARKS
WASH NATIONAL  MOSUNNY   74  43  32 W12G21    30.10F
DULLES         MOSUNNY   72  43  35 W10G20    30.10F
FORT BELVOIR   SUNNY     72  42  34 NW12G17   30.11S
QUANTICO       SUNNY     72  40  31 W9G22     30.13S
FREDERICKSBRG* SUNNY     73  43  34 W9        30.13S
STAFFORD*      SUNNY     70  40  33 W5        30.17S
WARRENTON      SUNNY     73  48  41 W7        30.12S
CULPEPER*      SUNNY     71  43  37 W12       30.14S
MANASSAS*      NOT AVBL
LEESBURG*      MOSUNNY   72  46  40 NW9G23    30.10F
WINCHESTER     SUNNY     72  30  21 W10G24    30.10F
FRONT ROYAL*   FAIR      70  43  37 W7G22     30.11F
LURAY*         FAIR      72  43  35 W10       30.14S
$$

VAZ048-049-060>072-079>083-221900-
CENTRAL AND SOUTH CENTRAL VIRGINIA

CITY           SKY/WX    TMP DP  RH WIND       PRES   REMARKS
RICHMOND       MOSUNNY   73  42  32 NW10      30.15S
CHESTERFIELD*  NOT AVBL
PETERSBURG*    SUNNY     71  40  31 W10       30.17S
HANOVER        SUNNY     71  42  35 NW9       30.16S
TAPPAHANNOCK*  SUNNY     73  33  22 NW7       30.14S
QUINTON*       FAIR      69  43  39 W8        30.15S
CHARLOTTSVILLE SUNNY     72  43  35 VRB3      30.15S
GORDONSVILLE*  FAIR      69  42  37 NW5       30.14F
ORANGE*        SUNNY     72  43  35 CALM      30.15F
LOUISA*        SUNNY     72  43  35 S5        30.14S
BUMPASS*       FAIR      69  43  38 SW7       30.15S
FARMVILLE*     SUNNY     71  40  33 SE3       30.16S
CREWE*         FAIR      70  42  36 W6        30.17S
FORT PICKETT*  FAIR      69  40  34 NW5       30.17S
CHASE CITY*    FAIR      72  45  38 W7        30.18S
CLARKSVILLE*   FAIR      70  41  35 W6        30.18S
SOUTH HILL*    SUNNY     68  43  39 CALM      30.23S
LAWRENCEVILLE* FAIR      70  41  35 W7        30.17S
EMPORIA*       SUNNY     68  43  40 SW5       30.18S
$$

VAZ088>098-221900-
SOUTHEAST VIRGINIA

CITY           SKY/WX    TMP DP  RH WIND       PRES   REMARKS
NORFOLK        SUNNY     70  40  33 NE8       30.14S
VIRGINIA BEACH MOSUNNY   72  40  31 N8        30.14S
NORFOLK NAVAL  MOSUNNY   73  44  35 SW8       30.16S
WEST POINT*    SUNNY     74  40  30 W8        30.16R
SALUDA*        FAIR      69  43  39 NW8       30.13S
NEWPORT NEWS   SUNNY     74  46  36 SW9       30.15R
LANGLEY AFB    SUNNY     70  42  35 VRB6      30.13S
FORT EUSTIS    SUNNY     69  49  48 NW9       30.13S
WILLIAMSBURG*  SUNNY     77  48  36 NW6       30.16R
HR EXEC AP*    FAIR      70  45  40 NE5       30.17S
FRANKLIN*      SUNNY     70  41  34 W6        30.16S
WAKEFIELD      SUNNY     71  45  39 VRB6      30.16R
$$

VAZ020-022-025-037-045-221900-
WEST CENTRAL AND SOUTHWEST VIRGINIA

CITY           SKY/WX    TMP DP  RH WIND       PRES   REMARKS
STAUNTON*      SUNNY     69  39  32 NW6       30.18S
WAYNESBORO*    FAIR      67  43  41 SW6       30.16F
HOT SPRINGS VA MOSUNNY   59  36  42 W8G16     30.21F
LYNCHBURG      SUNNY     69  38  32 CALM      30.19S
DANVILLE       SUNNY     72  40  31 NW8       30.20S
SOUTH BOSTON*  FAIR      71  37  28 CALM      30.18F
MARTINSVILLE   SUNNY     71  37  28 CALM      30.22F
ROANOKE        MOSUNNY   70  43  37 W13       30.21F
BLACKSBURG     SUNNY     62  43  49 NW8       30.26S
DUBLIN*        SUNNY     65  43  45 NW7       30.26S
MARION*        SUNNY     63  40  43 W8G16     30.29S
HILLSVILLE*    SUNNY     60  37  42 NW10      30.25S
RICHLANDS*     FAIR      59  28  30 N3        30.29S
WISE*          SUNNY     61  36  39 NW5       30.30F
ABINGDON*      SUNNY     64  42  44 NW3       30.28S
$$

MDZ021>025-VAZ099-100-221900-
SOUTHERN MARYLAND AND THE DELMARVA PENINSULA

CITY           SKY/WX    TMP DP  RH WIND       PRES   REMARKS
PATUXENT RIVER MOSUNNY   72  43  35 W13       30.11S
BAY BRIDGE APT   N/A    N/A N/A N/A W13       30.08S
LEONARDTOWN    SUNNY     70  43  37 W10       30.13S
DOVER          SUNNY     72  50  46 SW16      30.01F
GEORGETOWN     SUNNY     70  44  39 W12G24    30.07S
EASTON         SUNNY     72  46  40 NW17G25   30.12F
CAMBRIDGE      SUNNY     72  43  35 W10G18    30.09S
SALISBURY      SUNNY     71  45  39 NW13G22   30.09R
OCEAN CITY     SUNNY     71  40  32 NW13G22   30.07S
WALLOPS ISLAND MOSUNNY   71  43  36 NW15G24   30.10S
ACCOMACK*      SUNNY     66  52  59 W10G17    30.12S
$$

NCZ012>017-030>032-221900-
NORTH CENTRAL AND EASTERN NORTH CAROLINA

CITY           SKY/WX    TMP DP  RH WIND       PRES   REMARKS
ROANOKE RAPIDS FAIR      70  43  37 NE6       30.17S
RALEIGH        MOSUNNY   70  43  37 VRB3      30.20S
ELIZABETH CITY SUNNY     70  46  42 NE5       30.16R
AHOSKIE*       SUNNY     67  42  40 CALM      30.17S
EDENTON*       SUNNY     70  48  45 W5        30.17S
CURRITUCK*     SUNNY     69  39  34 E3        30.16S
KILL DEVIL HLS SUNNY     66  45  46 N6        30.16R
MANTEO         SUNNY     66  49  54 NE10      30.17R
CAPE HATTERAS  SUNNY     66  46  48 NE9G16    30.17S
TARBORO*       FAIR      72  42  34 NW5       30.19S
GOLDSBORO      MOSUNNY   70  46  42 NW1       30.17R
WASHINGTON     SUNNY    N/A N/A N/A NW3       30.18S
GREENVILLE     SUNNY     70  45  40 CALM      30.19S
NEW BERN       MOSUNNY   72  51  47 NW6       30.18S
WILMINGTON     PTSUNNY   72  55  55 N8        30.17S
$$

VAZ048-221900-
ELSEWHERE

CITY           SKY/WX    TMP DP  RH WIND       PRES   REMARKS
HARRISBURG PA  MOSUNNY   71  42  35 NW16G26   30.01S
BALTIMORE      MOSUNNY   72  43  35 W17G26    30.07F
ANNAPOLIS      SUNNY     71  41  33 W14       30.08S
ANDREWS AFB    SUNNY     71  43  36 W13       30.09F
PHILADELPHIA   MOSUNNY   74  41  30 W17G28    30.00S
HENDERSON NC   SUNNY     69  37  30 NW6       30.20R
GREENSBORO     MOSUNNY   70  41  34 VRB3      30.20F
ROCKY MOUNT    SUNNY     71  43  36 VRB6      30.18S
$$

VAZ100-221900-
MARINE

STATION/POSITION TIME  TEMP    WIND        PRES    WAVE   SWELL
                       AIR SEA DIR/SP/G            HT/PER HT/PER
                 (UTC) (F)     (DEG/KT/KT) (MB)    (FT/S) (FT/S)
BRANDYWINE LGT   1700   64 63  300/ 13/ 15 1017.8F
CAPE MAY NJ      1700   66 65  280/ 10/ 14 1017.2F
LEWES DE         1700   66 62  300/ 13/ 15 1017.7R
15NM E FENWICK I 1750   62 60              1017.8R   2/ 5
OCEAN-CITY-INLET 1700   67 60  330/ 14/ 18 1017.8S
WACHAPREAGUE VA  1700   69 65  280/  2/ 13 1019.8R
THOMAS POINT MD  1800   69 65  270/ 13/ 16 1019.2F
GOOSES REEF MD   1800   68 66  300/ 10/ 12 1020.1F   2/ 3
SOLOMONS ISLAND  1700      68                N/A
BISHOPS HEAD MD  1700   64 67  300/ 11/ 13 1019.2F
PINEY POINT MD   1700          320/ 16/ 18   N/A
CAMBRIDGE MD     1700   65 69  310/ 13/ 17 1019.0F
LEWISETTA VA     1700   66 69              1019.8R
RAPPAHANNOCK LGT 1700          280/ 11/ 13 1020.7R
STINGRAY PT      1800   67 69  290/ 14/ 16 1020.0R   1/ 3
YORK RVR RNG VA  1700   65     320/  4/  5 1020.0R
YORKTOWN VA      1700   65 70  310/  8/ 11 1020.4R
JAMESTOWN VA     1800   67 74  290/ 10/ 12 1019.9S
DOMINION TERM VA 1700   65     290/ 11/ 14 1020.8R
KIPTOPEKE VA     1700      71  300/  6/  8   N/A
CHES BAY BRIDGE  1700   63 66  280/  5/  7 1020.4R
CAPE HENRY VA    1700   64     310/ 10/ 11 1019.5R
CHESAPEAKE LGHT  1700   63     290/ 10/ 11 1021.4R
WILLOUBY STN VA  1700   66     350/  3/  4 1021.5R
CAPE HENRY BUOY  1728      62                N/A     3/ 7
1ST LANDING BUOY 1800      67              1020.5R
CAPE CHARLES BUO 1726      64                N/A     3/ 6   2/ 6
OFFSHORE WE BUOY 1711      60                N/A     4/ 6   3/ 6
64NM E OF VA BCH 1750   60 61  300/ 10/ 14 1020.2R   5/ 7   5/ 7
DUCK PIER NC     1700   62 67   10/  9/ 11 1020.3R
44100 DUCK FRF   1724      60                N/A     4/ 7
44056 DUCK FRF   1711      65                N/A     3/ 8
OREGON INLET NC  1700   63 68  360/ 10/ 16 1021.4R
HATTERAS NC      1700   64 71   10/ 10/ 13 1020.9R
DIAMOND SHLS NC  1750   62 77   10/ 12/ 16 1021.3R   4/ 8   3/ 8
CAPE LOOKOUT NC  1800   67      50/ 10/ 12 1021.4R
$$



USA.gov is the U.S. government's official web portal to all federal, state and local government web resources and services.